SCP
0 0 0 0 0 0 0 0 0 1 1 1 1 1 1 2 3 4 6 7 6 4 4 4 5 6 6 6 6 6 7 7 5 4 3 3 3 3 4 4 3 2 2 1
0 0 0 0 0 1 1 0 1 1 1 1 2 2 2 2 2 3 5 7 7 5 5 6 7 8 7 7 7 6 7 6 4 4 4 4 4 5 5 4 3 2 2 2
0 0 0 1 1 1 1 1 1 1 1 2 2 2 2 2 2 3 4 6 7 7 8 9 10 9 8 8 7 6 5 4 3 3 3 4 5 6 6 4 3 3 3 3
0 0 0 1 1 1 1 1 1 1 1 1 1 2 2 2 2 3 3 5 6 8 10 10 9 8 7 7 7 6 5 4 3 3 3 3 4 5 5 4 4 4 3 3
0 0 0 1 1 1 1 1 2 2 2 2 2 2 2 2 3 3 4 4 6 7 8 8 7 6 6 7 9 8 7 5 4 3 3 3 3 4 4 4 4 4 3 3
0 0 0 1 1 1 1 2 2 2 3 3 3 2 2 3 3 3 4 4 5 6 6 6 5 5 7 9 11 10 8 6 5 4 4 4 4 4 4 4 4 3 3 3
0 0 1 1 1 1 1 2 2 3 4 4 3 3 3 4 4 4 4 4 5 5 6 6 6 7 9 11 12 10 8 7 6 6 5 5 5 4 4 4 4 4 4 3
0 1 1 1 1 1 2 2 3 4 4 4 4 4 5 5 5 4 4 5 5 5 6 6 6 8 10 11 10 9 8 8 8 7 6 6 6 5 4 4 4 4 4 4
1 1 1 2 2 2 2 2 3 4 4 4 4 4 5 5 5 5 5 5 5 6 6 6 6 8 9 9 8 9 10 10 10 9 8 6 5 4 4 4 4 4 5 5
1 1 1 2 3 3 4 3 3 3 3 4 4 4 4 5 4 4 5 6 6 6 7 7 6 6 7 8 8 9 10 10 10 9 8 6 5 4 4 4 4 4 4 5
1 1 1 2 2 4 6 5 3 3 3 4 4 4 4 4 4 4 5 6 6 6 7 7 6 6 7 8 8 8 8 8 8 7 6 5 4 4 3 3 3 2 3 4
1 1 1 1 1 3 6 6 4 4 4 4 4 4 4 3 3 3 4 5 5 5 6 6 6 6 7 8 8 8 7 7 6 5 4 3 3 3 2 2 1 1 2 2
1 1 1 1 1 3 5 6 5 4 5 4 4 3 3 3 2 3 3 4 4 4 4 5 6 6 6 7 8 8 7 6 5 3 3 2 2 2 1 1 1 1 0 0
1 1 1 1 2 2 4 4 3 3 4 3 3 2 2 2 1 2 2 3 3 3 3 4 5 5 5 6 8 8 7 5 4 2 2 1 1 1 1 1 1 1 1 0
1 1 1 1 2 2 2 2 2 2 2 2 2 2 1 1 1 1 1 2 2 3 3 3 4 4 4 5 6 6 5 3 2 2 1 1 1 1 1 1 1 1 1 1
1 1 1 1 1 1 1 1 1 1 1 1 1 1 1 1 1 1 1 1 2 2 3 3 3 3 3 3 3 3 2 2 1 1 1 1 1 1 1 1 2 2 2 2
1 1 1 1 1 1 1 1 1 1 1 1 1 1 1 1 1 1 1 1 1 2 2 2 2 2 2 2 2 2 1 1 1 1 1 1 2 2 2 2 2 3 3 2
1 1 1 1 1 1 1 1 1 1 1 1 1 1 1 1 1 1 1 1 1 1 1 2 2 2 1 1 1 1 1 1 1 1 1 2 2 2 2 2 2 2 2 2
1 1 1 2 2 1 1 1 1 0 0 1 1 1 1 1 1 1 1 1 1 1 1 1 1 1 1 1 1 1 1 1 1 1 1 1 1 1 2 2 2 2 2 1
1 1 2 2 2 1 1 1 0 0 1 1 1 1 1 1 1 1 1 1 1 1 0 0 0 0 1 0 1 1 1 1 1 1 1 1 1 1 1 1 1 1 1 1
1 1 2 2 1 1 1 0 0 0 1 1 1 1 1 1 1 1 1 1 1 0 0 0 0 0 0 0 0 0 1 1 1 1 1 1 1 1 1 1 1 1 0 0
1 1 1 1 1 0 0 0 0 0 0 0 0 1 1 1 1 1 1 1 0 0 0 0 0 0 0 0 0 0 0 1 1 1 1 1 1 1 1 1 0 0 0 0
1 1 1 1 0 0 0 0 0 0 0 0 0 0 1 1 1 1 0 0 0 0 0 0 0 0 0 0 0 0 0 0 1 1 1 1 1 1 1 0 0 0 0 0
1 1 1 0 0 0 0 0 0 0 0 0 0 0 0 0 0 0 0 0 0 0 0 0 0 0 0 0 0 0 0 0 0 1 1 1 1 1 1 0 0 0 0 0
0 0 0 0 0 0 0 0 0 0 0 0 0 0 0 0 0 0 0 0 0 0 0 0 0 0 0 0 0 0 0 0 0 0 1 1 1 0 0 0 0 0 0 0
0 0 0 0 0 0 0 0 0 0 0 0 0 0 0 0 0 0 0 0 0 0 0 0 0 0 0 0 0 0 0 0 0 0 0 0 0 0 0 0 0 0 0 0
0 0 0 0 0 1 1 1 0 0 0 0 0 0 0 0 0 0 0 0 0 0 0 0 0 0 0 0 0 0 0 0 0 0 0 0 0 0 0 0 0 0 0 0
Wind_Speed
4 1 6 10 13 14 15 14 12 9 9 6 3 2 1 1 1 1 1 2 3 4 6 7 8 9 9 9 9 9 9 8 8 7 7 6 6 6 6 6 6 6 6 6
7 6 7 9 11 12 13 13 12 10 8 3 3 2 1 1 1 1 1 2 3 4 5 7 8 8 8 8 8 8 8 7 7 7 6 6 6 5 5 5 5 5 5 4
9 8 8 12 11 11 10 10 11 10 5 2 3 3 2 2 2 1 1 1 2 3 4 6 7 7 7 7 7 7 7 6 7 7 6 6 6 6 5 5 5 4 4 4
7 8 13 4 3 7 8 6 5 4 3 2 2 2 1 1 1 2 1 0 1 2 3 4 6 7 7 8 8 7 6 6 6 6 6 6 6 5 5 4 4 4 4 3
8 10 8 6 5 7 8 6 3 3 2 1 1 3 2 4 4 3 2 1 1 2 3 4 6 7 8 8 8 7 7 6 6 6 6 6 6 5 5 4 4 3 3 2
9 11 10 6 5 3 6 7 4 2 1 1 2 5 2 5 4 4 2 1 1 2 3 5 6 7 8 8 8 7 6 6 5 5 5 5 6 6 5 5 4 4 3 2
11 10 5 3 3 5 9 4 3 2 1 1 1 3 4 3 4 4 3 3 3 4 4 4 5 6 7 7 7 6 6 6 6 5 5 5 5 5 5 5 4 4 4 3
10 11 5 4 4 3 3 4 2 2 1 1 2 2 3 3 3 4 4 4 5 5 5 5 5 5 6 5 5 6 7 7 6 6 5 4 5 5 5 5 6 5 4 4
4 1 4 2 2 4 2 2 2 1 1 1 1 2 3 3 4 4 5 5 4 5 6 5 5 5 6 5 5 6 7 7 6 6 5 4 4 5 5 4 3 4 4 3
3 2 2 2 2 2 2 2 2 2 1 1 2 2 3 4 4 4 5 5 5 5 6 5 5 5 6 6 6 7 7 7 7 7 6 6 4 3 3 3 3 3 3 3
6 3 2 3 1 2 2 2 2 2 2 2 2 3 4 4 4 4 5 5 5 5 6 5 5 5 5 5 6 7 7 7 7 7 7 7 7 6 5 6 5 3 3 3
4 3 3 2 1 0 1 2 2 2 3 3 3 4 4 4 4 4 5 5 5 6 6 6 5 6 5 5 6 7 7 6 5 6 6 6 7 8 14 11 13 12 10 7
3 2 2 1 1 1 1 1 2 2 3 3 3 4 4 4 4 4 5 5 6 6 6 6 6 6 5 5 5 7 7 6 6 6 6 6 6 7 7 9 12 13 12 11
3 3 3 4 3 1 1 1 2 2 2 2 3 4 4 4 4 5 5 5 6 6 6 7 7 6 5 6 6 8 8 7 6 5 5 6 6 6 6 6 7 7 9 10
4 4 4 3 3 2 2 2 2 2 2 2 3 4 4 5 5 5 5 5 6 6 6 7 7 7 6 7 7 8 7 6 6 6 6 6 6 6 6 7 7 6 6 6
3 4 4 5 4 3 3 3 3 2 2 3 3 4 5 6 6 6 5 5 6 6 6 7 7 6 6 7 8 7 7 9 7 6 6 6 6 6 6 7 7 6 5 5
5 5 5 4 4 3 3 3 3 3 3 4 4 5 6 6 7 7 6 6 7 7 6 7 7 6 6 7 7 6 7 8 9 7 6 6 6 6 6 6 6 6 6 6
5 4 3 3 3 4 4 3 3 4 4 5 5 6 6 7 7 7 7 7 8 8 7 7 7 7 7 7 6 6 7 7 6 7 6 6 6 6 7 7 8 8 7 6
4 4 4 3 4 4 4 4 4 4 4 5 6 7 7 7 7 7 7 7 8 8 7 8 7 8 8 8 7 6 7 8 8 7 7 7 7 7 7 7 7 7 6 6
5 5 5 5 4 4 4 4 5 5 4 6 7 8 8 8 7 7 8 8 7 6 6 7 7 8 8 8 7 7 8 8 8 7 7 7 7 7 7 7 7 7 6 6
6 6 6 5 5 5 4 4 5 6 6 6 8 9 8 8 8 8 8 8 7 7 7 7 6 6 7 6 6 7 8 8 7 7 7 7 7 7 7 7 7 6 6 6
6 6 6 6 7 6 5 5 6 7 8 8 9 9 9 9 9 9 9 7 7 5 5 6 7 7 6 6 7 7 8 8 7 7 7 7 6 7 7 7 7 6 6 6
7 7 8 8 8 8 8 7 8 8 8 9 8 9 9 7 6 7 7 6 6 7 7 8 8 7 6 6 7 7 8 8 7 7 6 6 6 6 6 7 7 6 6 6
8 8 8 8 8 9 9 9 9 8 9 9 8 8 8 8 8 8 8 8 9 9 9 8 8 6 5 6 7 7 7 7 7 6 7 6 6 6 6 6 7 6 7 7
9 9 9 9 8 7 9 9 10 10 10 8 9 9 7 7 8 8 9 10 10 10 9 8 7 6 7 8 8 8 8 7 7 6 7 7 7 7 7 6 6 6 6 6
8 7 7 7 6 5 6 6 7 7 8 8 8 8 8 8 9 8 8 10 11 9 8 7 7 6 7 8 8 8 8 7 7 7 7 7 8 7 7 7 8 6 6 6
9 7 6 7 6 6 6 7 7 8 8 8 9 8 8 8 8 8 9 8 8 8 7 7 7 7 7 8 8 8 7 7 7 7 7 7 7 7 7 8 7 6 6 7
Wind_Direction
250 221 210 205 203 207 220 233 237 224 228 231 246 275 327 355 0 53 115 143 153 167 173 174 173 173 176 177 177 179 181 187 190 192 191 195 197 198 200 203 205 206 214 220
211 207 217 216 212 212 219 230 237 239 233 241 257 254 263 275 274 283 170 170 162 165 176 179 178 176 174 174 174 177 180 182 179 180 179 184 188 192 191 192 195 197 204 214
211 198 217 219 215 213 214 221 231 231 223 217 238 243 260 276 271 284 283 192 170 166 176 179 179 173 170 164 162 166 171 172 172 178 175 176 182 182 181 179 179 191 200 212
220 207 226 193 186 219 214 216 228 225 215 239 258 259 277 350 341 333 341 238 176 173 162 167 165 163 160 153 154 156 160 164 165 171 174 171 170 172 174 171 175 185 193 201
227 220 220 184 186 207 206 192 201 210 195 216 258 195 137 37 13 359 348 317 187 167 156 152 155 154 152 150 148 149 152 157 158 164 165 162 162 167 165 162 160 163 159 168
223 227 224 178 150 208 226 194 153 175 182 239 246 231 107 28 8 6 8 41 124 136 133 138 146 151 150 149 146 145 145 149 151 156 158 155 157 158 151 152 155 155 137 127
225 227 221 112 139 203 221 162 118 138 153 287 317 347 24 16 18 21 38 70 92 101 105 116 135 144 145 143 143 144 140 138 135 135 140 139 142 145 145 145 141 135 128 118
218 224 202 116 186 218 60 70 98 102 66 15 44 53 52 48 48 48 60 75 83 90 89 97 119 132 132 130 128 129 130 131 132 133 136 134 135 136 139 142 141 137 130 116
231 223 63 56 65 61 63 75 66 49 32 52 76 74 65 63 62 61 67 74 82 91 86 83 94 113 117 114 120 125 124 125 125 121 118 120 129 132 136 138 136 133 129 119
225 186 131 110 102 90 72 54 33 23 24 63 99 92 91 80 69 66 64 68 73 84 85 79 81 92 102 111 119 122 119 115 111 110 105 91 83 92 95 93 106 114 110 110
221 202 179 161 120 73 64 59 49 42 43 72 114 112 102 90 75 71 71 71 74 79 85 83 83 88 98 109 118 117 115 111 112 108 102 91 77 56 63 56 46 59 80 85
223 191 224 180 164 287 15 50 42 47 57 57 86 98 96 86 76 75 77 77 79 79 83 85 85 87 94 106 119 120 117 116 112 111 110 110 106 87 61 66 62 58 54 59
271 264 246 214 228 281 313 52 50 58 71 67 76 94 104 97 86 86 85 81 80 80 84 84 82 85 93 104 113 113 114 116 114 113 115 116 115 116 109 85 71 63 61 64
229 222 212 208 207 222 194 98 73 66 69 79 92 98 103 99 93 91 85 84 85 87 87 86 81 76 84 97 104 107 110 106 109 111 112 111 112 112 111 112 106 90 74 71
224 233 220 201 193 177 167 151 134 115 104 95 96 102 108 103 98 92 91 94 95 91 87 85 82 77 80 92 99 102 103 103 102 104 104 103 106 108 105 102 100 98 96 87
210 203 194 187 178 166 159 154 138 128 122 108 100 109 105 102 100 96 90 89 91 85 82 84 85 81 82 92 99 97 92 89 96 103 102 100 102 104 103 100 97 92 84 81
201 196 191 182 175 167 154 135 126 124 124 114 106 107 105 103 102 98 90 85 83 81 82 84 85 83 84 89 95 96 97 97 96 99 99 102 102 101 100 100 97 92 82 58
212 202 194 181 166 143 130 121 120 122 124 118 113 111 110 108 106 103 99 95 89 82 78 79 79 81 84 88 91 98 100 100 100 100 101 101 102 101 100 98 98 96 96 89
173 162 150 139 136 131 130 127 122 118 120 122 118 115 110 105 105 105 103 98 92 86 79 79 83 89 88 87 90 98 100 102 101 101 102 105 106 102 101 99 97 94 92 90
142 139 133 127 124 125 124 124 122 119 122 124 120 115 109 105 104 101 94 82 70 73 84 87 90 89 92 90 90 98 102 103 104 104 103 104 102 102 101 99 98 97 94 89
132 131 127 122 115 110 113 120 122 120 120 121 119 114 109 104 102 99 96 86 73 73 88 92 90 92 93 96 101 102 104 105 106 107 107 106 105 102 99 99 97 94 90 86
128 125 123 118 112 106 103 108 111 112 113 113 113 112 109 104 99 90 81 83 84 73 86 88 88 81 84 94 99 101 102 102 101 102 103 104 104 103 100 98 94 91 88 84
110 109 109 109 109 107 103 103 104 105 106 107 109 108 102 95 92 95 90 83 88 81 81 81 80 79 81 92 94 98 98 98 97 97 99 99 99 99 99 96 92 89 85 82
103 104 104 106 107 104 102 101 102 102 102 100 99 101 105 102 94 88 92 89 84 87 85 81 78 78 82 89 91 92 92 93 94 95 96 95 92 89 88 88 88 86 83 80
104 106 107 108 106 106 110 111 108 107 104 99 98 98 95 94 97 97 98 97 98 98 97 89 80 82 88 86 87 86 83 78 79 84 87 88 88 88 86 85 85 86 84 82
99 101 101 101 104 113 117 114 110 107 106 105 100 98 98 98 101 102 102 103 100 98 98 98 94 90 86 88 88 90 92 94 90 85 84 87 87 87 85 85 87 83 82 80
103 105 105 104 106 110 112 112 111 111 111 109 106 103 102 102 101 102 103 105 104 99 95 93 90 87 86 87 87 87 85 83 82 83 85 85 87 89 91 90 87 87 85 82